Overview Statistics Trail Chart Weather Telemetry Raw packets
 

This is the latest recevied weather packets stored in our database for station/object W5ITZ. If no packets are shown the sender has not sent any weather packets the latest 10 day(s).

<< 55 56 57 58 59 60 61 >>
Time Temp. Humidity Pressure Rain* Wind** Luminosity Snow
1787852621 34.44° C 45% 1015 hPa 0 mm - 900 W/m² -
1787852321 34.44° C 45% 1015.2 hPa 0 mm - 976 W/m² -
1787852020 34.44° C 46% 1015.3 hPa 0 mm - 943 W/m² -
1787851719 34.44° C 44% 1015.3 hPa 0 mm - 933 W/m² -
1787851414 34.44° C 47% 1015.4 hPa 0 mm - 920 W/m² -
1787851109 33.89° C 48% 1015.5 hPa 0 mm - 920 W/m² -
1787850805 33.89° C 47% 1015.6 hPa 0 mm - 918 W/m² -
1787850500 33.89° C 49% 1015.3 hPa 0 mm - 926 W/m² -
1787850195 33.33° C 53% 1015.4 hPa 0 mm - 903 W/m² -
1787849890 33.33° C 52% 1015.3 hPa 0 mm - 441 W/m² -
1787849585 33.33° C 52% 1015.5 hPa 0 mm - 894 W/m² -
1787849284 33.33° C 54% 1015.7 hPa 0 mm - 837 W/m² -
1787848983 32.78° C 53% 1015.6 hPa 0 mm - 824 W/m² -
1787848678 32.78° C 56% 1015.6 hPa 0 mm - 818 W/m² -
1787848373 32.78° C 56% 1015.5 hPa 0 mm - 812 W/m² -
1787848067 32.78° C 56% 1016 hPa 0 mm - 803 W/m² -
1787847767 32.22° C 59% 1016 hPa 0 mm - 850 W/m² -
1787847462 31.67° C 60% 1016 hPa 0 mm - 599 W/m² -
1787847157 32.22° C 59% 1015.9 hPa 0 mm - 360 W/m² -
1787846854 32.22° C 59% 1016.1 hPa 0 mm - 366 W/m² -
1787846554 32.22° C 59% 1016 hPa 0 mm - 662 W/m² -
1787846250 32.22° C 62% 1016 hPa 0 mm - 737 W/m² -
1787845946 31.67° C 62% 1015.8 hPa 0 mm - 696 W/m² -
1787845641 31.67° C 64% 1016 hPa 0 mm - 685 W/m² -
1787845340 31.67° C 65% 1016.2 hPa 0 mm - 666 W/m² -

* Rain latest hour (hover to see other rain measurements)
** Current wind speed in m/s (hover to see current wind gust speed)